Date String (YYYY-MM-DD hh:mm:ss) UTC,Instrument flags,absolute air pressure of the measurement (hPa),sample flow rate (lpm),inlet stack bypass flow (lpm),air temperature of the measurement (°C),ambient temperature measured by the external sensor (°C),aerosol sample conditioner tube jacket temperature (°C),OPC LED temperature (°C),internal box temperature (°C),relative humidity of the measurement (%),span deviation,mass concentration of particles derived from Lorenz-Mie calculation of OPC scattering (μg/m³),mass concentration of particles derived from Lorenz-Mie calculation of OPC scattering (μg/m³),mass concentration of particles derived from Lorenz-Mie calculation of OPC scattering (μg/m³)
DateTimeUTC,F1_M11,P_M11,Q1_M11,Q2_M11,T1_M11,T2_M11,T3_M11,T4_M11,T5_M11,U1_M11,ZSPAN_M11,X2_M11,X0_M11,X1_M11
2024-02-03 18:00:00,SystemResetWarning,0814.1,5.00,000.00,021.8,021.0,000.0,030.3,023.6,22.4,0000.0,0000.50,0000.75,0000.40
2024-02-03 18:01:00,SystemResetWarning,0814.1,4.99,000.00,021.8,021.0,000.0,030.3,023.6,22.4,0000.0,0000.47,0000.71,0000.38
2024-02-03 18:02:00,SystemResetWarning,0814.2,4.99,000.00,021.8,021.0,000.0,030.3,023.5,22.4,0000.0,0000.44,0000.63,0000.37
2024-02-03 18:03:00,SystemResetWarning,0814.1,5.00,000.00,021.8,021.0,000.0,030.3,023.5,22.4,0000.0,0000.43,0000.62,0000.36
2024-02-03 18:04:00,SystemResetWarning,0814.1,5.00,000.00,021.7,021.0,000.0,030.3,023.5,22.4,0000.0,0000.44,0000.63,0000.36
2024-02-03 18:05:00,SystemResetWarning,0814.1,5.00,000.00,021.7,021.0,000.0,030.2,023.5,22.4,0000.0,0000.43,0000.61,0000.35
2024-02-03 18:06:00,SystemResetWarning,0814.1,5.01,000.00,021.7,021.0,000.0,030.2,023.5,22.5,0000.0,0000.41,0000.58,0000.35
2024-02-03 18:07:00,SystemResetWarning,0814.1,5.01,000.00,021.7,021.0,000.0,030.2,023.5,22.5,0000.0,0000.41,0000.57,0000.34
2024-02-03 18:08:00,SystemResetWarning,0814.1,5.00,000.00,021.7,021.0,000.0,030.2,023.5,22.5,0000.0,0000.40,0000.56,0000.34
2024-02-03 18:09:00,SystemResetWarning,0814.1,4.99,000.00,021.7,021.0,000.0,030.2,023.5,22.5,0000.0,0000.39,0000.53,0000.34
2024-02-03 18:10:00,SystemResetWarning,0814.1,5.00,000.00,021.7,021.0,000.0,030.2,023.5,22.5,0000.0,0000.39,0000.51,0000.35
2024-02-03 18:11:00,SystemResetWarning,0814.0,5.01,000.00,021.7,021.0,000.0,030.2,023.5,22.5,0000.0,0000.38,0000.48,0000.35
2024-02-03 18:12:00,SystemResetWarning,0814.1,5.00,000.00,021.7,020.9,000.0,030.2,023.5,22.5,0000.0,0000.38,0000.47,0000.35
2024-02-03 18:13:00,SystemResetWarning,0814.1,5.01,000.00,021.7,020.9,000.0,030.2,023.5,22.5,0000.0,0000.38,0000.47,0000.35
2024-02-03 18:14:00,SystemResetWarning,0814.1,5.00,000.00,021.7,020.9,000.0,030.2,023.4,22.5,0000.0,0000.38,0000.47,0000.35
2024-02-03 18:15:00,SystemResetWarning,0814.0,5.00,000.00,021.7,020.9,000.0,030.2,023.5,22.5,0000.0,0000.36,0000.44,0000.35
2024-02-03 18:16:00,SystemResetWarning,0814.0,4.98,000.00,021.7,020.9,000.0,030.2,023.4,22.5,0000.0,0000.35,0000.41,0000.35
2024-02-03 18:17:00,SystemResetWarning,0814.0,4.99,000.00,021.7,020.9,000.0,030.2,023.4,22.5,0000.0,0000.35,0000.41,0000.34
2024-02-03 18:18:00,SystemResetWarning,0814.0,5.01,000.00,021.7,020.9,000.0,030.2,023.5,22.5,0000.0,0000.35,0000.42,0000.34
2024-02-03 18:19:00,SystemResetWarning,0814.0,5.01,000.00,021.7,020.9,000.0,030.2,023.4,22.5,0000.0,0000.35,0000.41,0000.34
2024-02-03 18:20:00,SystemResetWarning,0814.0,5.01,000.00,021.7,020.9,000.0,030.1,023.4,22.5,0000.0,0000.35,0000.41,0000.34
2024-02-03 18:21:00,SystemResetWarning,0813.9,5.00,000.00,021.7,020.9,000.0,030.1,023.4,22.6,0000.0,0000.34,0000.41,0000.34
2024-02-03 18:22:00,SystemResetWarning,0813.9,5.01,000.00,021.6,020.9,000.0,030.1,023.4,22.6,0000.0,0000.34,0000.41,0000.33
2024-02-03 18:23:00,SystemResetWarning,0813.9,5.01,000.00,021.6,020.9,000.0,030.1,023.4,22.6,0000.0,0000.34,0000.41,0000.33
2024-02-03 18:24:00,SystemResetWarning,0813.9,4.99,000.00,021.6,020.9,000.0,030.1,023.4,22.6,0000.0,0000.34,0000.40,0000.33
2024-02-03 18:25:00,SystemResetWarning,0813.9,5.00,000.00,021.6,020.9,000.0,030.1,023.4,22.7,0000.0,0000.33,0000.39,0000.32
2024-02-03 18:26:00,SystemResetWarning,0814.0,5.00,000.00,021.6,020.9,000.0,030.1,023.4,23.3,0000.0,0000.32,0000.39,0000.32
2024-02-03 18:27:00,SystemResetWarning,0813.9,5.01,000.00,021.6,020.9,000.0,030.1,023.4,24.8,0000.0,0000.33,0000.39,0000.32
2024-02-03 18:28:00,SystemResetWarning,0813.9,5.00,000.00,021.6,020.9,000.0,030.1,023.4,23.6,0000.0,0000.32,0000.39,0000.32
2024-02-03 18:29:00,SystemResetWarning,0813.9,4.99,000.00,021.6,020.9,000.0,030.1,023.4,23.1,0000.0,0000.32,0000.40,0000.31
2024-02-03 18:30:00,SystemResetWarning,0813.9,4.99,000.00,021.6,020.8,000.0,030.1,023.4,23.0,0000.0,0000.32,0000.68,0000.31
2024-02-03 18:31:00,SystemResetWarning,0813.9,4.99,000.00,021.6,020.8,000.0,030.1,023.4,22.9,0000.0,0000.33,0000.74,0000.30
2024-02-03 18:32:00,SystemResetWarning,0813.9,5.00,000.00,021.6,020.8,000.0,030.1,023.4,22.9,0000.0,0000.33,0000.76,0000.30
2024-02-03 18:33:00,SystemResetWarning,0813.9,5.01,000.00,021.6,020.8,000.0,030.1,023.4,22.9,0000.0,0000.32,0000.75,0000.29
2024-02-03 18:34:00,SystemResetWarning,0813.9,5.01,000.00,021.6,020.8,000.0,030.1,023.3,22.9,0000.0,0000.31,0000.73,0000.28
2024-02-03 18:35:00,SystemResetWarning,0813.9,4.99,000.00,021.6,020.8,000.0,030.1,023.3,22.9,0000.0,0000.30,0000.73,0000.27
2024-02-03 18:36:00,SystemResetWarning,0813.8,5.00,000.00,021.5,020.8,000.0,030.1,023.3,22.9,0000.0,0000.30,0000.72,0000.26
2024-02-03 18:37:00,SystemResetWarning,0813.7,4.99,000.00,021.5,020.8,000.0,030.0,023.3,22.9,0000.0,0000.30,0000.72,0000.26
2024-02-03 18:38:00,SystemResetWarning,0813.7,5.01,000.00,021.5,020.8,000.0,030.0,023.3,22.9,0000.0,0000.29,0000.71,0000.25
2024-02-03 18:39:00,SystemResetWarning,0813.7,5.00,000.00,021.5,020.8,000.0,030.0,023.3,22.9,0000.0,0000.28,0000.71,0000.24
2024-02-03 18:40:00,SystemResetWarning,0813.7,5.00,000.00,021.5,020.8,000.0,030.0,023.3,22.9,0000.0,0000.28,0000.70,0000.24
2024-02-03 18:41:00,SystemResetWarning,0813.7,5.01,000.00,021.5,020.8,000.0,030.0,023.3,22.9,0000.0,0000.26,0000.51,0000.23
2024-02-03 18:42:00,SystemResetWarning,0813.7,5.00,000.00,021.5,020.8,000.0,030.0,023.3,22.9,0000.0,0000.24,0000.33,0000.22
2024-02-03 18:43:00,SystemResetWarning,0813.7,4.98,000.00,021.5,020.8,000.0,030.0,023.3,22.9,0000.0,0000.23,0000.28,0000.21
2024-02-03 18:44:00,SystemResetWarning,0813.7,4.99,000.00,021.5,020.8,000.0,030.0,023.3,22.9,0000.0,0000.22,0000.27,0000.20
2024-02-03 18:45:00,SystemResetWarning,0813.7,5.00,000.00,021.5,020.8,000.0,030.0,023.3,22.9,0000.0,0000.21,0000.27,0000.20
2024-02-03 18:46:00,SystemResetWarning,0813.7,5.00,000.00,021.5,020.8,000.0,030.0,023.3,22.9,0000.0,0000.21,0000.27,0000.19
2024-02-03 18:47:00,SystemResetWarning,0813.7,5.00,000.00,021.5,020.8,000.0,030.0,023.3,22.9,0000.0,0000.21,0000.27,0000.19
2024-02-03 18:48:00,SystemResetWarning,0813.7,5.00,000.00,021.5,020.8,000.0,030.0,023.3,22.9,0000.0,0000.21,0000.28,0000.18
2024-02-03 18:49:00,SystemResetWarning,0813.7,5.00,000.00,021.5,020.8,000.0,030.0,023.3,22.9,0000.0,0000.20,0000.28,0000.17
2024-02-03 18:50:00,SystemResetWarning,0813.7,5.00,000.00,021.5,020.8,000.0,030.0,023.3,22.9,0000.0,0000.20,0000.29,0000.17
2024-02-03 18:51:00,SystemResetWarning,0813.6,5.00,000.00,021.5,020.8,000.0,030.0,023.3,22.9,0000.0,0000.21,0000.33,0000.16
2024-02-03 18:52:00,SystemResetWarning,0813.7,5.00,000.00,021.5,020.8,000.0,029.9,023.3,22.9,0000.0,0000.20,0000.33,0000.15
2024-02-03 18:53:00,SystemResetWarning,0813.7,5.00,000.00,021.5,020.8,000.0,029.9,023.3,22.9,0000.0,0000.20,0000.33,0000.15
2024-02-03 18:54:00,SystemResetWarning,0813.8,5.00,000.00,021.5,020.7,000.0,029.9,023.2,22.9,0000.0,0000.20,0000.33,0000.15
2024-02-03 18:55:00,SystemResetWarning,0813.6,5.00,000.00,021.5,020.7,000.0,029.9,023.2,22.9,0000.0,0000.19,0000.32,0000.14
2024-02-03 18:56:00,SystemResetWarning,0813.6,5.00,000.00,021.5,020.7,000.0,029.9,023.2,22.9,0000.0,0000.18,0000.30,0000.14
2024-02-03 18:57:00,SystemResetWarning,0813.6,5.00,000.00,021.5,020.7,000.0,029.9,023.2,22.9,0000.0,0000.18,0000.31,0000.13
2024-02-03 18:58:00,SystemResetWarning,0813.6,5.00,000.00,021.5,020.7,000.0,029.9,023.2,22.9,0000.0,0000.18,0000.31,0000.12
2024-02-03 18:59:00,SystemResetWarning,0813.6,5.00,000.00,021.5,020.7,000.0,029.9,023.2,22.9,0000.0,0000.16,0000.29,0000.11
